TimeEDT,TemperatureF,Dew PointF,Humidity,Sea Level PressureIn,VisibilityMPH,Wind Direction,Wind SpeedMPH,Gust SpeedMPH,PrecipitationIn,Events,Conditions,WindDirDegrees,DateUTC
12:40 AM,48.2,46.4,93,30.12,10.0,West,3.5,-,0.00,,Overcast,280,2012-10-08 04:40:00
12:53 AM,48.9,46.0,90,30.12,10.0,WNW,3.5,-,0.00,,Overcast,290,2012-10-08 04:53:00
1:41 AM,48.2,46.4,93,30.12,10.0,Calm,Calm,-,N/A,,Overcast,0,2012-10-08 05:41:00
1:53 AM,48.9,45.0,86,30.12,10.0,Calm,Calm,-,N/A,,Overcast,0,2012-10-08 05:53:00
2:13 AM,48.2,46.4,93,30.12,10.0,Calm,Calm,-,N/A,,Scattered Clouds,0,2012-10-08 06:13:00
2:53 AM,45.0,43.0,93,30.12,2.5,Calm,Calm,-,N/A,,Clear,0,2012-10-08 06:53:00
3:05 AM,44.6,42.8,93,30.12,7.0,Calm,Calm,-,N/A,,Partly Cloudy,0,2012-10-08 07:05:00
3:19 AM,42.8,42.8,100,30.12,1.8,Calm,Calm,-,N/A,,Partly Cloudy,0,2012-10-08 07:19:00
3:31 AM,42.8,39.2,87,30.13,0.8,Calm,Calm,-,N/A,,Partly Cloudy,0,2012-10-08 07:31:00
3:39 AM,42.8,39.2,87,30.13,0.8,Calm,Calm,-,N/A,,Mist,0,2012-10-08 07:39:00
3:53 AM,41.0,39.0,93,30.14,0.5,Calm,Calm,-,N/A,Fog,Fog,0,2012-10-08 07:53:00
4:08 AM,39.2,39.2,100,30.13,1.0,Calm,Calm,-,N/A,,Clear,0,2012-10-08 08:08:00
4:19 AM,39.2,37.4,93,30.13,3.0,Calm,Calm,-,N/A,,Clear,0,2012-10-08 08:19:00
4:34 AM,39.2,37.4,93,30.14,2.5,Calm,Calm,-,N/A,,Clear,0,2012-10-08 08:34:00
4:42 AM,39.2,37.4,93,30.14,8.0,Calm,Calm,-,N/A,,Clear,0,2012-10-08 08:42:00
4:53 AM,37.9,37.0,97,30.15,10.0,Calm,Calm,-,N/A,,Clear,0,2012-10-08 08:53:00
5:53 AM,36.0,34.0,93,30.17,10.0,Calm,Calm,-,N/A,,Clear,0,2012-10-08 09:53:00
6:53 AM,35.1,33.1,92,30.19,10.0,Calm,Calm,-,N/A,,Clear,0,2012-10-08 10:53:00
7:53 AM,39.9,37.9,93,30.22,10.0,Calm,Calm,-,N/A,,Clear,0,2012-10-08 11:53:00
8:53 AM,52.0,46.0,80,30.26,10.0,NNW,3.5,-,N/A,,Clear,340,2012-10-08 12:53:00
9:53 AM,55.0,43.0,64,30.27,10.0,North,6.9,-,N/A,,Partly Cloudy,360,2012-10-08 13:53:00
10:53 AM,54.0,39.9,59,30.27,10.0,North,8.1,-,N/A,,Scattered Clouds,350,2012-10-08 14:53:00
11:53 AM,55.0,41.0,59,30.27,10.0,Calm,Calm,-,N/A,,Clear,0,2012-10-08 15:53:00
12:53 PM,55.0,39.9,57,30.28,10.0,ENE,3.5,-,N/A,,Scattered Clouds,70,2012-10-08 16:53:00
1:53 PM,55.0,41.0,59,30.28,10.0,Calm,Calm,-,N/A,,Overcast,0,2012-10-08 17:53:00
2:53 PM,54.0,42.1,64,30.28,10.0,Calm,Calm,-,N/A,,Overcast,0,2012-10-08 18:53:00
3:53 PM,53.1,44.1,71,30.26,10.0,Calm,Calm,-,N/A,,Overcast,0,2012-10-08 19:53:00
4:53 PM,53.1,46.0,77,30.27,10.0,Calm,Calm,-,N/A,,Overcast,0,2012-10-08 20:53:00
5:53 PM,53.1,46.0,77,30.31,10.0,WNW,4.6,-,N/A,,Overcast,290,2012-10-08 21:53:00
6:53 PM,51.1,46.9,86,30.30,10.0,Calm,Calm,-,N/A,,Overcast,0,2012-10-08 22:53:00
7:53 PM,50.0,46.9,89,30.31,10.0,Calm,Calm,-,N/A,,Overcast,0,2012-10-08 23:53:00
8:53 PM,51.1,46.9,86,30.29,10.0,ENE,3.5,-,N/A,,Overcast,60,2012-10-09 00:53:00
10:53 PM,51.1,43.0,74,30.26,10.0,NE,4.6,-,N/A,,Clear,40,2012-10-09 02:53:00
11:53 PM,52.0,45.0,77,30.25,10.0,ENE,4.6,-,N/A,,Clear,70,2012-10-09 03:53:00